Regional Weather Roundup
Issued by NWS Portland, ME

Home | Current Version | Previous Version | Text Only | Print | Product List | Glossary On
Versions: 1 2 3 4 5 6 7 8 9 10 11 12 13 14 15 16 17 18 19 20 21 22 23 24 25 26 27 28 29 30 31 32 33 34 35 36 37 38 39 40 41 42 43 44 45 46 47 48 49 50
000
ASUS41 KGYX 232210
RWRGYX
WEATHER ROUNDUP FOR MAINE AND NEW HAMPSHIRE
NATIONAL WEATHER SERVICE GRAY ME
600 PM EDT THU OCT 23 2014

MEZ002-005-006-010-012-015-018-020-021-024-026-027-029-232300-
MAINE

CITY           SKY/WX    TMP DP  RH WIND       PRES   REMARKS
PORTLAND       CLOUDY    52  48  86 NE17G24   29.73S
SANFORD        CLOUDY    48  45  87 N17G25    29.72S
BAR HARBOR     CLOUDY    52  52 100 NE13G21   29.76S
WISCASSET      HVY RAIN  51  49  92 NE10      29.76R FOG
ROCKLAND       CLOUDY    52  50  93 N10G17    29.74S
FRYEBURG       LGT RAIN  49  46  90 N8        29.80S
LEWISTONAUBURN CLOUDY    48  45  87 N16G25    29.77R
AUGUSTA        RAIN      48  46  93 N18G25    29.80R FOG
WATERVILLE     CLOUDY    48  43  81 N15       29.78F
BANGOR         LGT RAIN  50  48  93 NE15G24   29.81F FOG
GREENVILLE       N/A     45  42  89 VRB7      29.86F
MILLINOCKET    CLOUDY    47  44  90 NE13G21   29.92F
HOULTON        CLOUDY    46  43  89 N12       29.94F
PRESQUE ISLE   CLOUDY    46  37  71 N13       30.00F
FRENCHVILLE    CLOUDY    42  34  73 NE12G22   30.05S
CARIBOU        LGT RAIN  45  38  76 N12       30.01F
$$

NHZ002-005-008-009-011-012-014-232300-
NEW HAMPSHIRE

CITY           SKY/WX    TMP DP  RH WIND       PRES   REMARKS
PORTSMOUTH     DRIZZLE   51  48  91 N16G23    29.68R
ROCHESTER      CLOUDY    50  47  89 N15G28    29.70S FOG
NASHUA         CLOUDY    53  49  86 N10       29.70R
MANCHESTER     CLOUDY    53  46  77 N16G24    29.69R
CONCORD        CLOUDY    50  46  86 N15G23    29.72S
LACONIA        CLOUDY    50  45  81 NE13      29.74S
PLYMOUTH       CLOUDY    49  49 100 W5        29.76F
BERLIN         CLOUDY    47  44  90 N9        29.84R
WHITEFIELD     CLOUDY    48  45  89 NE8       29.83R
JAFFREY        LGT RAIN  48  47  96 N10G17    29.72R
LEBANON        CLOUDY    48  45  89 N7        29.79R
MT WASHINGTON  FRZ RAIN  32  32 100 E44G52      N/A  VSB 1/16WCI  15
$$

VTZ005-007-008-232300-
VERMONT

CITY           SKY/WX    TMP DP  RH WIND       PRES   REMARKS
ST JOHNSBURY     N/A     47  45  93 MISG      29.84R
MONTPELIER     LGT RAIN  44  43  96 N8        29.88F
BURLINGTON     LGT RAIN  45  41  86 N14G22    29.91F
$$

MAZ007-012-024-CTZ003-RIZ002-NYZ038-NYZ072-232300-
SOUTHERN NEW ENGLAND AND NY

CITY           SKY/WX    TMP DP  RH WIND       PRES   REMARKS
BOSTON         CLOUDY    51  51 100 N36       29.61R
WORCESTER      LGT RAIN  49  47  93 N13G25    29.65R FOG
NANTUCKET      CLOUDY    58  56  93 N9        29.47R
PROVIDENCE     LGT RAIN  54  52  93 N16G28    29.58S
HARTFORD       DRIZZLE   54  46  74 N16G25    29.67R
ALBANY         CLOUDY    47  44  90 N7        29.83S
NEW YORK CITY  MOCLDY    53  46  77 NW22G32   29.71R
$$

ANZ081-ANZ082-ANZ150-NHZ014-MEZ023>029-232300-
COASTAL MARINE OBSERVATIONS

STATION/POSITION TIME  TEMP    WIND        PRES    WAVE
                       AIR SEA DIR/SP/G            HT/PER
                 (UTC) (F)     (DEG/KT/KT) (MB)    (FT/S)
MOUNT DESERT ROC 2200   54                 1003.9R
MATINICUS ROCK   2200           40/ 27/ 31 1005.0R
PORTLAND WX BUOY 2150   53 54   20/ 23/ 29 1005.1R   9/11
WELLS            2100   51 50   20/ 17/ 22 1004.9R
ISLE OF SHOALS   2200   52      20/ 35/ 40 1003.2R
JEFFREYS LEDGE   2121      56                N/A    16/11
CASHES LEDGE BUO 2150   55 55   40/ 29/ 35 1001.6R  17/10
$$

.............KEY..............
   WCI - WIND CHILL
   TC  - TEMPERATURE IN CELSIUS
   VSB - VISIBILITY IN MILES
   HX  - HEAT INDEX
   FAIR- INDICATES FEW OR NO CLOUDS BELOW 12,000 FT, WITH NO
         SIGNIFICANT WEATHER AND/OR OBSTRUCTIONS TO VISIBILITY.





USA.gov is the U.S. government's official web portal to all federal, state and local government web resources and services.